MPH221 EDDH-EDDF

Flight info

Callsign MPH221
Flight time N/A
Altitude 30000
Route AMLUH2C/05 AMLUH M852 DENIX DCT RIMET/N0488F310 T157 KOKEB/N0453F230 T157 KERAX KERAX5A
Aircraft B744/H-SDE3FGHIM1M2RWXY/LB1

Departure

Time 2026-05-06 14:43
Airport Hamburg Helmut Schmidt Airport (EDDH)

Arrival

Time N/A
Airport Frankfurt Main Airport (EDDF)
Time Latitude Longitude Altitude Speed Heading
2026-05-06 13:54 53.62779 9.99129 64 ft 0 kts 63°
2026-05-06 14:17 53.62779 9.99128 64 ft 1 kts 63°
2026-05-06 14:17 53.62772 9.99107 64 ft 2 kts 63°
2026-05-06 14:17 53.62765 9.99084 64 ft 2 kts 63°
2026-05-06 14:18 53.62759 9.99061 64 ft 2 kts 65°
2026-05-06 14:18 53.62755 9.99036 64 ft 2 kts 93°
2026-05-06 14:18 53.62758 9.99011 64 ft 2 kts 115°
2026-05-06 14:18 53.62766 9.98989 64 ft 2 kts 136°
2026-05-06 14:19 53.62775 9.98976 64 ft 0 kts 153°
2026-05-06 14:19 53.62780 9.98971 64 ft 1 kts 154°
2026-05-06 14:19 53.62782 9.98970 64 ft 0 kts 154°
2026-05-06 14:21 53.62781 9.98971 64 ft 1 kts 154°
2026-05-06 14:21 53.62725 9.99018 64 ft 18 kts 153°
2026-05-06 14:21 53.62666 9.99071 64 ft 0 kts 152°
2026-05-06 14:24 53.62664 9.99072 64 ft 1 kts 152°
2026-05-06 14:24 53.62629 9.99105 64 ft 11 kts 152°
2026-05-06 14:25 53.62558 9.99048 64 ft 15 kts 251°
2026-05-06 14:25 53.62532 9.98840 64 ft 18 kts 258°
2026-05-06 14:25 53.62512 9.98656 64 ft 13 kts 261°
2026-05-06 14:25 53.62498 9.98524 64 ft 9 kts 259°
2026-05-06 14:26 53.62485 9.98409 64 ft 12 kts 259°
2026-05-06 14:26 53.62461 9.98215 64 ft 21 kts 252°
2026-05-06 14:26 53.62382 9.97995 64 ft 19 kts 230°
2026-05-06 14:26 53.62312 9.97852 64 ft 12 kts 230°
2026-05-06 14:27 53.62281 9.97790 64 ft 0 kts 230°
2026-05-06 14:27 53.62279 9.97786 64 ft 2 kts 230°
2026-05-06 14:27 53.62275 9.97777 64 ft 1 kts 230°
2026-05-06 14:27 53.62228 9.97684 64 ft 10 kts 230°
2026-05-06 14:28 53.62215 9.97657 64 ft 0 kts 230°
2026-05-06 14:30 53.62214 9.97655 64 ft 1 kts 230°
2026-05-06 14:31 53.62183 9.97593 64 ft 12 kts 230°
2026-05-06 14:31 53.62174 9.97574 64 ft 0 kts 230°
2026-05-06 14:33 53.62165 9.97557 64 ft 5 kts 230°
2026-05-06 14:33 53.62114 9.97454 64 ft 17 kts 230°
2026-05-06 14:33 53.62021 9.97268 64 ft 20 kts 230°
2026-05-06 14:33 53.61942 9.97111 64 ft 14 kts 230°
2026-05-06 14:34 53.61895 9.97012 64 ft 7 kts 230°
2026-05-06 14:34 53.61871 9.96963 64 ft 4 kts 231°
2026-05-06 14:34 53.61848 9.96917 64 ft 6 kts 230°
2026-05-06 14:34 53.61808 9.96834 64 ft 12 kts 230°
2026-05-06 14:35 53.61739 9.96694 64 ft 16 kts 230°
2026-05-06 14:35 53.61685 9.96570 64 ft 9 kts 249°
2026-05-06 14:35 53.61682 9.96508 64 ft 2 kts 277°
2026-05-06 14:35 53.61684 9.96490 64 ft 1 kts 288°
2026-05-06 14:36 53.61697 9.96446 64 ft 6 kts 308°
2026-05-06 14:36 53.61702 9.96436 64 ft 0 kts 316°
2026-05-06 14:41 53.61703 9.96435 64 ft 0 kts 316°
2026-05-06 14:42 53.61720 9.96420 64 ft 6 kts 349°
2026-05-06 14:42 53.61807 9.96428 64 ft 17 kts
2026-05-06 14:42 53.61896 9.96511 64 ft 11 kts 49°
2026-05-06 14:42 53.61989 9.96698 64 ft 46 kts 51°
2026-05-06 14:43 53.62338 9.97411 65 ft 112 kts 51°
2026-05-06 14:43 53.62974 9.98703 98 ft 169 kts 51°
2026-05-06 14:43 53.63760 10.00294 559 ft 179 kts 50°
2026-05-06 14:43 53.64572 10.01858 1020 ft 180 kts 52°
2026-05-06 14:44 53.65390 10.03544 1304 ft 189 kts 51°
2026-05-06 14:44 53.66223 10.05219 1762 ft 186 kts 52°
2026-05-06 14:44 53.67051 10.06910 2154 ft 188 kts 52°
2026-05-06 14:45 53.68731 10.10344 2895 ft 191 kts 53°
2026-05-06 14:45 53.69579 10.12080 3244 ft 192 kts 53°
2026-05-06 14:45 53.70422 10.13809 3579 ft 194 kts 54°
2026-05-06 14:45 53.71286 10.15592 3908 ft 197 kts 54°
2026-05-06 14:46 53.71989 10.17548 4164 ft 196 kts 79°
2026-05-06 14:46 53.71917 10.19767 4368 ft 196 kts 114°
2026-05-06 14:46 53.71024 10.21583 4440 ft 214 kts 148°
2026-05-06 14:46 53.69545 10.22363 4543 ft 237 kts 170°
2026-05-06 14:47 53.67877 10.22686 4954 ft 246 kts 170°
2026-05-06 14:47 53.66221 10.23104 5636 ft 245 kts 168°
2026-05-06 14:47 53.64554 10.23585 6285 ft 245 kts 168°
2026-05-06 14:47 53.62888 10.24120 6905 ft 245 kts 167°
2026-05-06 14:48 53.61219 10.24699 7502 ft 246 kts 167°
2026-05-06 14:48 53.59573 10.25305 8065 ft 247 kts 167°
2026-05-06 14:48 53.57912 10.25952 8606 ft 249 kts 167°
2026-05-06 14:48 53.56268 10.26658 9113 ft 251 kts 167°
2026-05-06 14:49 53.54627 10.27349 9596 ft 253 kts 167°
2026-05-06 14:49 53.52922 10.28072 10075 ft 255 kts 168°
2026-05-06 14:49 53.51181 10.28808 10536 ft 258 kts 168°
2026-05-06 14:49 53.49442 10.29541 10973 ft 261 kts 169°
2026-05-06 14:50 53.47682 10.30280 11393 ft 265 kts 169°
2026-05-06 14:50 53.45894 10.31026 11793 ft 269 kts 169°
2026-05-06 14:50 53.44068 10.31780 12171 ft 274 kts 170°
2026-05-06 14:50 53.42221 10.32536 12510 ft 280 kts 169°
2026-05-06 14:51 53.40320 10.33406 12833 ft 287 kts 168°
2026-05-06 14:51 53.38392 10.34288 13255 ft 290 kts 169°
2026-05-06 14:51 53.36450 10.35167 13709 ft 292 kts 169°
2026-05-06 14:51 53.34489 10.36059 14153 ft 294 kts 169°
2026-05-06 14:52 53.32548 10.36936 14561 ft 297 kts 169°
2026-05-06 14:52 53.30542 10.37841 14948 ft 301 kts 169°
2026-05-06 14:52 53.28520 10.38751 15291 ft 307 kts 170°
2026-05-06 14:52 53.26418 10.39696 15577 ft 315 kts 170°
2026-05-06 14:53 53.24290 10.40650 15753 ft 328 kts 170°
2026-05-06 14:53 53.22053 10.41650 16075 ft 335 kts 169°
2026-05-06 14:53 53.19793 10.42661 16588 ft 337 kts 170°
2026-05-06 14:53 53.17561 10.43655 17076 ft 339 kts 170°
2026-05-06 14:54 53.15274 10.44664 17554 ft 342 kts 171°
2026-05-06 14:54 53.12961 10.45538 17975 ft 339 kts 180°
2026-05-06 14:54 53.10646 10.45414 18383 ft 334 kts 190°
2026-05-06 14:54 53.08306 10.45087 18811 ft 338 kts 189°
2026-05-06 14:55 53.05982 10.44800 19234 ft 341 kts 191°
2026-05-06 14:55 53.03628 10.44477 19671 ft 344 kts 191°
2026-05-06 14:55 53.01242 10.44164 20084 ft 347 kts 191°
2026-05-06 14:55 52.98825 10.43837 20485 ft 351 kts 192°
2026-05-06 14:56 52.96385 10.43507 20880 ft 354 kts 192°
2026-05-06 14:56 52.93919 10.43172 21295 ft 357 kts 193°
2026-05-06 14:56 52.91441 10.42836 21714 ft 359 kts 193°
2026-05-06 14:56 52.89051 10.42512 22114 ft 362 kts 193°
2026-05-06 14:57 52.86550 10.42172 22532 ft 364 kts 193°
2026-05-06 14:57 52.84008 10.41827 22929 ft 366 kts 193°
2026-05-06 14:57 52.81506 10.41489 23311 ft 369 kts 193°
2026-05-06 14:57 52.78964 10.41144 23709 ft 371 kts 194°
2026-05-06 14:58 52.76387 10.40795 24087 ft 373 kts 194°
2026-05-06 14:58 52.73826 10.40447 24464 ft 376 kts 194°
2026-05-06 14:58 52.71243 10.40099 24841 ft 377 kts 194°
2026-05-06 14:58 52.68634 10.39746 25218 ft 379 kts 194°
2026-05-06 14:59 52.65993 10.39389 25594 ft 381 kts 194°
2026-05-06 14:59 52.63373 10.39036 25940 ft 383 kts 194°
2026-05-06 14:59 52.60700 10.38674 26270 ft 386 kts 195°
2026-05-06 14:59 52.58015 10.38313 26584 ft 389 kts 195°
2026-05-06 15:00 52.55323 10.37948 26879 ft 392 kts 195°
2026-05-06 15:00 52.52724 10.37598 27165 ft 395 kts 195°
2026-05-06 15:00 52.49995 10.37231 27472 ft 397 kts 195°
2026-05-06 15:00 52.47218 10.36857 27787 ft 400 kts 195°
2026-05-06 15:01 52.44495 10.36492 28098 ft 402 kts 195°
2026-05-06 15:01 52.41675 10.36114 28419 ft 404 kts 195°
2026-05-06 15:01 52.38927 10.35747 28729 ft 406 kts 195°
2026-05-06 15:01 52.36104 10.35368 29045 ft 407 kts 195°
2026-05-06 15:02 52.33263 10.34988 29342 ft 410 kts 196°
2026-05-06 15:02 52.30456 10.34613 29612 ft 412 kts 196°
2026-05-06 15:02 52.27586 10.34228 29847 ft 416 kts 196°
2026-05-06 15:02 52.24678 10.33839 30000 ft 422 kts 196°
2026-05-06 15:03 52.21726 10.33442 30083 ft 430 kts 195°
2026-05-06 15:03 52.15667 10.32626 30139 ft 450 kts 195°
2026-05-06 15:03 52.12533 10.32208 30144 ft 462 kts 195°
2026-05-06 15:04 52.09345 10.31784 30147 ft 474 kts 194°
2026-05-06 15:04 52.06021 10.31344 30148 ft 485 kts 194°
2026-05-06 15:04 52.02688 10.30905 30136 ft 495 kts 194°
2026-05-06 15:05 51.95918 10.30027 30166 ft 492 kts 194°
2026-05-06 15:05 51.92577 10.29605 30058 ft 478 kts 194°
2026-05-06 15:05 51.89417 10.29196 29689 ft 469 kts 194°
2026-05-06 15:05 51.86431 10.28812 29170 ft 464 kts 194°
2026-05-06 15:06 51.83112 10.28384 28534 ft 459 kts 194°
2026-05-06 15:06 51.79957 10.27978 27873 ft 456 kts 194°
2026-05-06 15:06 51.76837 10.27576 27133 ft 455 kts 194°
2026-05-06 15:06 51.73701 10.27172 26409 ft 453 kts 193°
2026-05-06 15:07 51.70591 10.26772 25753 ft 449 kts 193°
2026-05-06 15:07 51.67501 10.26375 25198 ft 447 kts 193°
2026-05-06 15:07 51.64418 10.25971 24938 ft 452 kts 193°
2026-05-06 15:07 51.61469 10.25593 24882 ft 455 kts 193°
2026-05-06 15:08 51.58428 10.25201 24900 ft 457 kts 192°
2026-05-06 15:08 51.55244 10.24792 24925 ft 459 kts 192°
2026-05-06 15:08 51.52063 10.24384 24940 ft 460 kts 192°
2026-05-06 15:08 51.48883 10.23976 24943 ft 462 kts 192°
2026-05-06 15:09 51.45744 10.23584 24941 ft 462 kts 192°
2026-05-06 15:09 51.42554 10.23184 24929 ft 460 kts 192°
2026-05-06 15:09 51.39355 10.22768 24917 ft 459 kts 193°
2026-05-06 15:09 51.36211 10.22355 24913 ft 459 kts 193°
2026-05-06 15:10 51.33048 10.21927 24908 ft 459 kts 192°
2026-05-06 15:10 51.29832 10.21846 24899 ft 465 kts 187°
2026-05-06 15:10 51.26652 10.21824 24909 ft 464 kts 189°
2026-05-06 15:10 51.23455 10.21746 24914 ft 466 kts 188°
2026-05-06 15:11 51.20193 10.21706 24906 ft 462 kts 189°
2026-05-06 15:11 51.17022 10.21626 24894 ft 461 kts 189°
2026-05-06 15:11 51.13808 10.21561 24898 ft 462 kts 189°
2026-05-06 15:11 51.10604 10.21505 24906 ft 465 kts 188°
2026-05-06 15:12 51.07399 10.21461 24913 ft 466 kts 188°
2026-05-06 15:12 51.04149 10.21400 24911 ft 465 kts 188°
2026-05-06 15:12 51.00949 10.21356 24892 ft 462 kts 188°
2026-05-06 15:12 50.97698 10.21295 24885 ft 463 kts 188°
2026-05-06 15:13 50.94488 10.21231 24892 ft 467 kts 188°
2026-05-06 15:13 50.91276 10.21159 24906 ft 471 kts 188°
2026-05-06 15:13 50.88073 10.21084 24913 ft 475 kts 188°
2026-05-06 15:13 50.84775 10.21016 24912 ft 477 kts 188°
2026-05-06 15:14 50.81481 10.20955 24899 ft 473 kts 188°
2026-05-06 15:14 50.78273 10.20464 24835 ft 458 kts 200°
2026-05-06 15:14 50.75362 10.18661 24826 ft 439 kts 217°
2026-05-06 15:14 50.73048 10.15737 24842 ft 426 kts 233°
2026-05-06 15:15 50.71450 10.11953 24857 ft 418 kts 249°
2026-05-06 15:15 50.70676 10.07635 24858 ft 416 kts 264°
2026-05-06 15:15 50.70605 10.03124 24885 ft 416 kts 269°
2026-05-06 15:15 50.70284 9.98647 24861 ft 422 kts 261°
2026-05-06 15:16 50.69589 9.94208 24856 ft 426 kts 257°
2026-05-06 15:16 50.68694 9.89847 24827 ft 425 kts 253°
2026-05-06 15:16 50.67541 9.85603 24784 ft 424 kts 249°
2026-05-06 15:16 50.66360 9.81421 24772 ft 423 kts 250°
2026-05-06 15:17 50.65198 9.77151 24771 ft 423 kts 250°
2026-05-06 15:17 50.64016 9.72994 24764 ft 423 kts 248°
2026-05-06 15:17 50.62383 9.69268 24699 ft 431 kts 232°
2026-05-06 15:17 50.60056 9.66399 24703 ft 444 kts 217°
2026-05-06 15:18 50.57276 9.64512 24762 ft 450 kts 208°
2026-05-06 15:18 50.54499 9.62781 24803 ft 450 kts 210°
2026-05-06 15:18 50.51683 9.60930 24814 ft 454 kts 210°
2026-05-06 15:18 50.48960 9.58865 24768 ft 445 kts 219°
2026-05-06 15:19 50.46735 9.55820 24740 ft 429 kts 235°
2026-05-06 15:19 50.45295 9.52197 24733 ft 417 kts 250°
2026-05-06 15:19 50.44589 9.48237 24729 ft 409 kts 262°
2026-05-06 15:19 50.43994 9.43851 24740 ft 400 kts 259°
2026-05-06 15:20 50.43350 9.39728 24608 ft 390 kts 259°
2026-05-06 15:20 50.42757 9.35608 24496 ft 395 kts 259°
2026-05-06 15:20 50.42147 9.31560 24589 ft 402 kts 259°
2026-05-06 15:20 50.41526 9.27321 24722 ft 412 kts 259°
2026-05-06 15:21 50.40847 9.22961 24804 ft 424 kts 255°
2026-05-06 15:21 50.39737 9.18667 24876 ft 434 kts 250°
2026-05-06 15:21 50.38654 9.14336 24925 ft 432 kts 253°
2026-05-06 15:21 50.37715 9.10117 24749 ft 414 kts 253°
2026-05-06 15:22 50.36751 9.06078 24491 ft 402 kts 252°
2026-05-06 15:22 50.35827 9.02088 24156 ft 395 kts 253°
2026-05-06 15:22 50.34903 8.98169 23764 ft 384 kts 252°
2026-05-06 15:22 50.34016 8.94374 23314 ft 366 kts 253°
2026-05-06 15:23 50.33179 8.90778 22765 ft 343 kts 252°
2026-05-06 15:23 50.32361 8.87400 22109 ft 325 kts 248°
2026-05-06 15:23 50.31136 8.84674 21348 ft 321 kts 227°
2026-05-06 15:23 50.29393 8.82916 20560 ft 324 kts 207°
2026-05-06 15:24 50.27127 8.82254 19548 ft 336 kts 185°
2026-05-06 15:24 50.24839 8.83014 18566 ft 346 kts 162°
2026-05-06 15:24 50.22859 8.85067 17635 ft 354 kts 139°
2026-05-06 15:24 50.21452 8.88165 16730 ft 356 kts 116°
2026-05-06 15:25 50.20849 8.91872 15843 ft 354 kts 93°
2026-05-06 15:25 50.21087 8.95342 15035 ft 348 kts 71°
2026-05-06 15:25 50.22171 8.98662 14207 ft 336 kts 49°
2026-05-06 15:25 50.23561 9.01451 13457 ft 329 kts 52°
2026-05-06 15:26 50.24804 9.04185 12748 ft 323 kts 52°
2026-05-06 15:26 50.26017 9.06769 12076 ft 317 kts 52°
2026-05-06 15:26 50.26988 9.09093 11462 ft 312 kts 65°
2026-05-06 15:26 50.27644 9.12275 10705 ft 306 kts 77°
2026-05-06 15:27 50.28141 9.15324 10018 ft 302 kts 74°
2026-05-06 15:27 50.28718 9.18436 9308 ft 297 kts 71°
2026-05-06 15:27 50.29436 9.21440 8603 ft 292 kts 68°
2026-05-06 15:27 50.30134 9.24348 7929 ft 287 kts 70°
2026-05-06 15:28 50.30808 9.27235 7263 ft 283 kts 68°
2026-05-06 15:28 50.31466 9.30018 6623 ft 278 kts 69°
2026-05-06 15:28 50.32105 9.32848 5980 ft 274 kts 68°
2026-05-06 15:28 50.32688 9.35556 5359 ft 269 kts 78°
2026-05-06 15:29 50.32634 9.38319 4953 ft 252 kts 109°
2026-05-06 15:29 50.31779 9.40489 4789 ft 230 kts 142°
2026-05-06 15:29 50.30423 9.41535 4650 ft 211 kts 177°
2026-05-06 15:29 50.29012 9.41630 4680 ft 203 kts 182°
2026-05-06 15:30 50.27647 9.41659 4790 ft 202 kts 182°
2026-05-06 15:30 50.26265 9.41688 4944 ft 204 kts 182°
2026-05-06 15:30 50.24890 9.41577 4974 ft 200 kts 200°
2026-05-06 15:30 50.23803 9.40467 4889 ft 184 kts 237°
2026-05-06 15:31 50.23245 9.38817 4874 ft 175 kts 245°
2026-05-06 15:31 50.22749 9.37134 4869 ft 175 kts 245°
2026-05-06 15:31 50.22264 9.35497 4989 ft 176 kts 245°
2026-05-06 15:32 50.21243 9.32071 5258 ft 178 kts 245°
2026-05-06 15:32 50.20733 9.30354 5192 ft 179 kts 245°
2026-05-06 15:32 50.20208 9.28578 5108 ft 180 kts 245°
2026-05-06 15:32 50.19691 9.26830 5050 ft 179 kts 245°
2026-05-06 15:33 50.19172 9.25074 5017 ft 178 kts 245°
2026-05-06 15:33 50.18660 9.23341 4993 ft 176 kts 245°
2026-05-06 15:33 50.18159 9.21650 4972 ft 175 kts 245°
2026-05-06 15:33 50.17653 9.19940 4951 ft 174 kts 245°
2026-05-06 15:34 50.17170 9.18307 4932 ft 173 kts 245°
2026-05-06 15:34 50.16673 9.16632 4917 ft 171 kts 245°
2026-05-06 15:34 50.16173 9.14944 4902 ft 170 kts 245°
2026-05-06 15:34 50.15686 9.13298 4887 ft 168 kts 245°
2026-05-06 15:35 50.15204 9.11661 4873 ft 167 kts 245°
2026-05-06 15:35 50.14722 9.10016 4852 ft 167 kts 245°
2026-05-06 15:35 50.14230 9.08337 4778 ft 169 kts 246°
2026-05-06 15:35 50.13833 9.06684 4769 ft 162 kts 260°
2026-05-06 15:36 50.13806 9.04965 4740 ft 156 kts 270°
2026-05-06 15:36 50.13796 9.03289 4716 ft 154 kts 265°
2026-05-06 15:36 50.13714 9.01607 4831 ft 157 kts 262°
2026-05-06 15:36 50.13558 8.99941 4976 ft 159 kts 259°
2026-05-06 15:37 50.13343 8.98240 5080 ft 164 kts 257°
2026-05-06 15:37 50.13075 8.96502 5149 ft 170 kts 255°
2026-05-06 15:37 50.12768 8.94749 5166 ft 174 kts 254°
2026-05-06 15:37 50.12414 8.92909 5144 ft 174 kts 252°
2026-05-06 15:38 50.12048 8.91126 5090 ft 175 kts 252°
2026-05-06 15:38 50.11659 8.89311 5046 ft 177 kts 251°
2026-05-06 15:38 50.11259 8.87492 5031 ft 179 kts 251°
2026-05-06 15:38 50.10846 8.85652 5000 ft 181 kts 250°
2026-05-06 15:39 50.10415 8.83860 5013 ft 178 kts 250°
2026-05-06 15:39 50.10030 8.82030 4870 ft 183 kts 253°
2026-05-06 15:39 50.09640 8.80150 4689 ft 184 kts 252°
2026-05-06 15:39 50.09292 8.78284 4421 ft 183 kts 256°
2026-05-06 15:40 50.08979 8.76442 4127 ft 179 kts 253°
2026-05-06 15:40 50.08606 8.74604 3785 ft 181 kts 251°